STARLINK-2316

Last updated on Sat Apr 24 2021 00:02:02 GMT+0000 (Coordinated Universal Time)

1 47984U 21024H 21113.25001157 -.00027118 00000-0 -18919-3 0 9992 2 47984 53.0489 55.7084 0001091 81.4738 66.9621 15.73224251 1827

Satellite not in orbit

STARLINK-2316